COSMOS 2251 DEB, 37993

Orbit data source: Space-Track

COSMOS 2251 DEB, 37993 is space debris in LEO originally from a launch on Wed, 16 Jun 1993 UTC launched from the Plesetsk Missile And Space Complex (PKMTR). The debris from Iridium 33, an American commercial communications satellite, has been tracked extensively since its accidental collision with the defunct Russian satellite Cosmos 2251 in 2009. This event, occurring at high speed in low Earth orbit (LEO), generated thousands of pieces of space debris, significantly increasing the risk of further collisions. The Iridium 33 debris cloud has impacted space traffic management and orbital debris mitigation strategies, making it a subject of ongoing study in space situational awareness.

Loading next visibility...
Identifier
37993, 1993-036BQU
Orbit
LEO
Country
Flag of CISCIS
Related business
Manufacturer
Unknown
Mission
Spacecraft
Bus & Motor
Unknown
Mass
Unknown
Launch date (UTC)
1993-06-16 (32 years ago)
Launch vehicle
Unknown
Launch site
Plesetsk Missile And Space Complex (PKMTR)
Object type
Payload
Rocket body
Debris
Shape & HBR
Unknown shape, 0.1 m
Radar Cross Section
Small (<0.1 m²)

Expand to show TLE details & history
Last TLE update: 2 days ago

TLE from 2 days ago
0 COSMOS 2251 DEB
1 37993U 93036BQU 25302.59694661  .00009283  00000-0  19696-2 0  9995
2 37993  74.0228 251.1482 0022832 343.9386  16.1053 14.59088582646734
Epoch: 2025-10-29T14:19Z
TLE epoch observation values (Epoch: 2025-10-29T14:19:36.187Z)
Latitude
0.00007°
Longitude
-1.92037°
Altitude
683.239 km
Speed
7.523 km/s
True Right ascension
16h 44m 35s
True Declination
0° 00' 00"
Sunlit
Object was in daylight at epoch
Visualization orbit readout
Latitude
Unknown
Longitude
Unknown
Altitude
Unknown
Speed
Unknown
Apparent Right ascension
Unknown
Apparent Declination
Unknown
Sunlit
N/A
Visualization observer readout
Local Sidereal Time
09:26:56
Azimuth
Unknown
Elevation
Unknown
Doppler factor
Unknown
Orbital elements
Apogee altitude
709.865 km
Perigee altitude
677.572 km
Semi-major axis
7,071.855 km
Eccentricity
0.00228
Inclination
74.0228°
RAAN
251.1482°
Arg. of periapsis
343.9386°
True anomaly
16.17808°
Mean anomaly
16.1053°
Eccentric anomaly
16.14167°
Mean motion
3.64958 °/min
Orbital period
98.64 mins
BSTAR
0.0019696

Documentation

Showing up to 5 results
|